Regional Weather Roundup
Issued by NWS Spokane, WA

Home | Current Version | Previous Version | Text Only | Print | Product List | Glossary On
Versions: 1 2 3 4 5 6 7 8 9 10 11 12 13 14 15 16 17 18 19 20 21 22 23 24 25 26 27 28 29 30 31 32 33 34 35 36 37 38 39 40 41 42 43 44 45 46 47 48 49 50
000
NZUS01 KOTX 231010
RWROTX
EASTERN WASHINGTON/NORTHERN IDAHO ROUNDUP
NATIONAL WEATHER SERVICE, SPOKANE WA
300 AM PDT WED JUL 23 2014

Note: "fair" indicated few or no clouds below 12,000 feet with no
significant weather and/or obstructions to visibility.

...NORTHEAST WASHINGTON AND NORTHERN IDAHO PANHANDLE...

CITY           SKY/WX    TMP DP  RH WIND       PRES   REMARKS
SPOKANE INTL   CLOUDY    65  54  67 NE5       30.06F
SPOKANE DOWNTO CLOUDY    66  55  67 CALM      30.06F
COEUR D ALENE  CLOUDY    61  57  88 N7        30.07F
DEER PARK      CLOUDY    61  55  81 NE3       30.08F
SANDPOINT      CLOUDY    61  54  77 NE9       30.11F

...SOUTHEAST WASHINGTON AND SOUTHERN IDAHO PANHANDLE...

CITY           SKY/WX    TMP DP  RH WIND       PRES   REMARKS
WALLA WALLA    CLOUDY    68  59  73 E17       29.91F
PULLMAN/MOSCOW CLOUDY    61  57  87 SE12      30.13R
LEWISTON       LGT RAIN  66  59  78 E6        30.09R
LOWELL           N/A     68  58  70 N5        30.12F

...COLUMBIA BASIN...

CITY           SKY/WX    TMP DP  RH WIND       PRES   REMARKS
EPHRATA        CLOUDY    69  53  56 N8        29.98F
MOSES LAKE     CLOUDY    66  55  67 NE9       29.99F
TRI CITIES     CLOUDY    66  63  90 N3        29.95F
HERMISTON      CLOUDY    66  60  81 SE3       29.93F
PENDLETON      MOCLDY    63  58  83 CALM      29.97R

...EAST SLOPES CASCADES...

CITY           SKY/WX    TMP DP  RH WIND       PRES   REMARKS
THE DALLES     MOCLDY    66  63  90 N8        29.95F
YAKIMA         CLOUDY    66  60  81 W5        30.00F
ELLENSBURG     CLOUDY    63  58  83 S5        30.03S
WENATCHEE      CLOUDY    65  60  84 CALM      30.03S
OMAK           CLOUDY    63  52  67 N7        30.04F

...SOUTHERN BRITISH COLUMBIA...

CITY           SKY/WX    TMP DP  RH WIND       PRES   REMARKS
PENTICTON      MOCLDY    61  50  67 N9        30.06F

...WESTERN MONTANA...

CITY           SKY/WX    TMP DP  RH WIND       PRES   REMARKS
MISSOULA       CLOUDY    64  54  69 NE7       30.21R

...NEIGHBORING CITIES...

CITY           SKY/WX    TMP DP  RH WIND       PRES   REMARKS
SEATTLE        CLOUDY    62  61  96 N5        30.00F
CALGARY        PTCLDY    55  46  71 S9        30.09F



USA.gov is the U.S. government's official web portal to all federal, state and local government web resources and services.